{"data":{"norad_id":48237,"epoch":"2026-05-24T21:56:00.159936Z","epoch_age_seconds":78913,"freshness":"FRESH","line1":"1 48237U 21031AD  26144.91389074 -.00000147  00000+0 -43122-3 0  9997","line2":"2 48237  87.8943 294.3493 0001821  90.8711 269.2627 13.14501076245303","mean_motion":13.14501076,"eccentricity":0.0001821,"inclination_deg":87.8943,"raan_deg":294.3493,"arg_perigee_deg":90.8711,"mean_anomaly_deg":269.2627,"bstar":-0.00043122,"rev_number":24530,"period_min":109.54726673803,"perigee_km":1204.4159512666,"apogee_km":1207.1780200242,"semimajor_km":7583.9339856454,"source":"CELESTRAK","updated_at":"2026-05-25T13:38:22.438985Z"}}